Estación de Melipilla
Ultimos registro cada 15 minutos 37
| N° | Estación | Fecha / Hora | Temperatura | Humedad | Lluvia | Velocidad | Dirección | Radiación | Presion |
| 37 | Melipilla | 02-05-2026 09:00 | 10,2 | 97 | 0 | 0 | 17 | 93 | 1020,6 |
| 36 | Melipilla | 02-05-2026 08:45 | 8,8 | 97 | 0 | 0 | 17 | 47 | 1020,8 |
| 35 | Melipilla | 02-05-2026 08:30 | 7,7 | 96 | 0 | 0 | 17 | 39 | 1020,8 |
| 34 | Melipilla | 02-05-2026 08:15 | 7,3 | 96 | 0 | 0 | 17 | 21 | 1020,8 |
| 33 | Melipilla | 02-05-2026 08:00 | 6,9 | 95 | 0 | 0 | 17 | 14 | 1020,8 |
| 32 | Melipilla | 02-05-2026 07:45 | 6,9 | 95 | 0 | 0 | 17 | 9 | 1020,8 |
| 31 | Melipilla | 02-05-2026 07:30 | 7,1 | 95 | 0 | 0 | 17 | 0 | 1020,7 |
| 30 | Melipilla | 02-05-2026 07:15 | 6,8 | 95 | 0 | 0 | 356 | 0 | 1020,7 |
| 29 | Melipilla | 02-05-2026 07:00 | 6,8 | 94 | 0 | 0 | 352 | 0 | 1020,7 |
| 28 | Melipilla | 02-05-2026 06:45 | 7 | 94 | 0 | 0 | 352 | 0 | 1020,6 |
| 27 | Melipilla | 02-05-2026 06:30 | 7,3 | 94 | 0 | 0 | 352 | 0 | 1020,7 |
| 26 | Melipilla | 02-05-2026 06:15 | 7,3 | 95 | 0 | 0 | 19 | 0 | 1020,7 |
| 25 | Melipilla | 02-05-2026 06:00 | 7,2 | 95 | 0 | 0 | 73 | 0 | 1020,5 |
| 24 | Melipilla | 02-05-2026 05:45 | 6,9 | 95 | 0 | 0,4 | 14 | 0 | 1020,6 |
| 23 | Melipilla | 02-05-2026 05:30 | 6,7 | 94 | 0 | 0 | 49 | 0 | 1020,6 |
| 22 | Melipilla | 02-05-2026 05:15 | 6,8 | 94 | 0 | 0 | 54 | 0 | 1020,7 |
| 21 | Melipilla | 02-05-2026 05:00 | 6,8 | 94 | 0 | 0 | 33 | 0 | 1020,7 |
| 20 | Melipilla | 02-05-2026 04:45 | 6,8 | 93 | 0 | 0 | 33 | 0 | 1020,8 |
| 19 | Melipilla | 02-05-2026 04:30 | 6,9 | 93 | 0 | 0 | 33 | 0 | 1021 |
| 18 | Melipilla | 02-05-2026 04:15 | 7,1 | 92 | 0 | 0 | 85 | 0 | 1021,1 |
| 17 | Melipilla | 02-05-2026 04:00 | 7,3 | 92 | 0 | 0 | 85 | 0 | 1021,2 |
| 16 | Melipilla | 02-05-2026 03:45 | 7,8 | 91 | 0 | 0 | 85 | 0 | 1021,3 |
| 15 | Melipilla | 02-05-2026 03:30 | 8,4 | 93 | 0 | 0 | 85 | 0 | 1021,4 |
| 14 | Melipilla | 02-05-2026 03:15 | 8,4 | 93 | 0 | 0 | 36 | 0 | 1021,7 |
| 13 | Melipilla | 02-05-2026 03:00 | 8,7 | 93 | 0 | 0,9 | 333 | 0 | 1021,8 |
| 12 | Melipilla | 02-05-2026 02:45 | 8,7 | 94 | 0 | 0 | 331 | 0 | 1022 |
| 11 | Melipilla | 02-05-2026 02:30 | 8,4 | 93 | 0 | 0 | 317 | 0 | 1022,1 |
| 10 | Melipilla | 02-05-2026 02:15 | 8,5 | 93 | 0 | 0 | 318 | 0 | 1022,4 |
| 9 | Melipilla | 02-05-2026 02:00 | 8,8 | 92 | 0 | 0 | 309 | 0 | 1022,5 |
| 8 | Melipilla | 02-05-2026 01:45 | 9 | 92 | 0 | 0 | 36 | 0 | 1022,6 |
| 7 | Melipilla | 02-05-2026 01:30 | 9,3 | 93 | 0 | 0 | 36 | 0 | 1022,6 |
| 6 | Melipilla | 02-05-2026 01:15 | 9,5 | 94 | 0 | 0 | 35 | 0 | 1022,8 |
| 5 | Melipilla | 02-05-2026 01:00 | 9,2 | 92 | 0 | 0 | 89 | 0 | 1022,9 |
| 4 | Melipilla | 02-05-2026 00:45 | 9,6 | 91 | 0 | 0 | 89 | 0 | 1022,8 |
| 3 | Melipilla | 02-05-2026 00:30 | 10 | 91 | 0 | 0 | 89 | 0 | 1023 |
| 2 | Melipilla | 02-05-2026 00:15 | 10,2 | 91 | 0 | 0 | 89 | 0 | 1023,2 |
| 1 | Melipilla | 02-05-2026 00:00 | 10,4 | 92 | 0 | 0 | 89 | 0 | 1023,2 |